• în România
  • Lista ţărilor
  • Pe 7 zile
  • Temperatura apei
  • Hartă satelitară
  • Meteo pe hartă
  • Widget-uri
  • user-avatar
    Intrare

    Meteo pe oră la Glyadkovka

    Astăzi, 20 August, Luni

    Timp Temperatura Precipitaţii Vânt Presiune Umiditate
    00:00 +13°C° 0 mm 0 m/s 741 mmHg 74%
    01:00 +13°C° 0 mm 0 m/s 740 mmHg 75%
    02:00 +12°C° 0 mm 0 m/s 740 mmHg 76%
    03:00 +12°C° 0 mm 0 m/s 740 mmHg 77%
    04:00 +12°C° 0 mm 0 m/s 740 mmHg 76%
    05:00 +13°C° 0 mm 0 m/s 740 mmHg 75%
    06:00 +13°C° 0 mm 0 m/s 741 mmHg 74%
    07:00 +16°C° 0 mm 1 m/s 741 mmHg 67%
    08:00 +19°C° 0 mm 1 m/s 741 mmHg 59%
    09:00 +21°C° 0 mm 1 m/s 741 mmHg 52%
    10:00 +22°C° 0 mm 1 m/s 741 mmHg 48%
    11:00 +23°C° 0 mm 1 m/s 741 mmHg 44%
    12:00 +25°C° 0 mm 2 m/s 741 mmHg 41%
    13:00 +25°C° 0 mm 2 m/s 740 mmHg 39%
    14:00 +26°C° 0 mm 2 m/s 740 mmHg 38%
    15:00 +26°C° 0 mm 2 m/s 740 mmHg 37%
    16:00 +26°C° 0 mm 2 m/s 739 mmHg 40%
    17:00 +25°C° 0 mm 1 m/s 739 mmHg 44%
    18:00 +24°C° 0 mm 1 m/s 739 mmHg 48%
    19:00 +23°C° 0 mm 1 m/s 739 mmHg 51%
    20:00 +21°C° 0 mm 1 m/s 739 mmHg 54%
    21:00 +19°C° 0 mm 1 m/s 739 mmHg 57%
    22:00 +19°C° 0 mm 1 m/s 739 mmHg 58%
    23:00 +19°C° 0 mm 1 m/s 739 mmHg 59%

    Mâine, 21 August, Marţi

    Timp Temperatura Precipitaţii Vânt Presiune Umiditate
    00:00 +18°C° 0 mm 1 m/s 739 mmHg 60%
    01:00 +18°C° 0 mm 1 m/s 739 mmHg 62%
    02:00 +16°C° 0 mm 2 m/s 738 mmHg 63%
    03:00 +16°C° 0 mm 2 m/s 738 mmHg 64%
    04:00 +16°C° 0 mm 2 m/s 738 mmHg 65%
    05:00 +16°C° 0 mm 2 m/s 738 mmHg 66%
    06:00 +16°C° 0 mm 2 m/s 738 mmHg 67%
    07:00 +18°C° 0 mm 2 m/s 738 mmHg 61%
    08:00 +21°C° 0 mm 3 m/s 738 mmHg 55%
    09:00 +24°C° 0 mm 3 m/s 739 mmHg 49%
    10:00 +25°C° 0 mm 4 m/s 738 mmHg 45%
    11:00 +26°C° 0 mm 4 m/s 738 mmHg 41%
    12:00 +27°C° 0 mm 5 m/s 738 mmHg 37%
    13:00 +28°C° 0 mm 5 m/s 738 mmHg 36%
    14:00 +28°C° 0 mm 5 m/s 737 mmHg 35%
    15:00 +28°C° 0 mm 5 m/s 737 mmHg 35%
    16:00 +27°C° 0 mm 4 m/s 736 mmHg 39%
    17:00 +26°C° 0 mm 4 m/s 736 mmHg 43%
    18:00 +25°C° 0 mm 3 m/s 736 mmHg 47%
    19:00 +24°C° 0 mm 3 m/s 736 mmHg 49%
    20:00 +21°C° 0 mm 3 m/s 736 mmHg 50%
    21:00 +20°C° 0 mm 3 m/s 735 mmHg 52%
    22:00 +19°C° 0 mm 3 m/s 735 mmHg 52%
    23:00 +19°C° 0 mm 4 m/s 735 mmHg 51%

    Poimâine, 22 August, Miercuri

    Timp Temperatura Precipitaţii Vânt Presiune Umiditate
    00:00 +19°C° 0 mm 4 m/s 735 mmHg 51%
    01:00 +18°C° 0 mm 4 m/s 735 mmHg 50%
    02:00 +18°C° 0 mm 4 m/s 734 mmHg 49%
    03:00 +18°C° 0 mm 4 m/s 734 mmHg 48%
    04:00 +18°C° 0 mm 4 m/s 734 mmHg 48%
    05:00 +17°C° 0 mm 4 m/s 734 mmHg 49%
    06:00 +17°C° 0 mm 4 m/s 734 mmHg 50%
    07:00 +18°C° 0,4 mm 4 m/s 734 mmHg 56%
    08:00 +18°C° 0,4 mm 4 m/s 734 mmHg 63%
    09:00 +19°C° 0,4 mm 4 m/s 734 mmHg 69%
    10:00 +19°C° 0,7 mm 4 m/s 735 mmHg 71%
    11:00 +19°C° 0,7 mm 3 m/s 735 mmHg 74%
    12:00 +19°C° 0,7 mm 3 m/s 735 mmHg 76%
    13:00 +20°C° 0,1 mm 4 m/s 735 mmHg 67%
    14:00 +21°C° 0,1 mm 4 m/s 735 mmHg 58%
    15:00 +22°C° 0,1 mm 5 m/s 736 mmHg 49%
    16:00 +21°C° 0 mm 4 m/s 736 mmHg 51%
    17:00 +21°C° 0 mm 4 m/s 736 mmHg 54%
    18:00 +20°C° 0 mm 4 m/s 736 mmHg 57%
    19:00 +18°C° 0 mm 4 m/s 737 mmHg 60%
    20:00 +17°C° 0 mm 3 m/s 737 mmHg 63%
    21:00 +14°C° 0 mm 3 m/s 738 mmHg 66%
    22:00 +13°C° 0 mm 3 m/s 738 mmHg 66%
    23:00 +13°C° 0 mm 3 m/s 738 mmHg 66%

    23 August, Joi

    Timp Temperatura Precipitaţii Vânt Presiune Umiditate
    00:00 +12°C° 0 mm 3 m/s 739 mmHg 66%
    01:00 +12°C° 0 mm 3 m/s 739 mmHg 68%
    02:00 +11°C° 0 mm 3 m/s 739 mmHg 70%
    03:00 +11°C° 0 mm 3 m/s 739 mmHg 73%
    04:00 +11°C° 0 mm 3 m/s 740 mmHg 73%
    05:00 +12°C° 0 mm 2 m/s 740 mmHg 74%
    06:00 +12°C° 0 mm 2 m/s 740 mmHg 75%
    07:00 +12°C° 0 mm 3 m/s 741 mmHg 67%
    08:00 +14°C° 0 mm 3 m/s 741 mmHg 58%
    09:00 +17°C° 0 mm 3 m/s 741 mmHg 50%
    10:00 +18°C° 0 mm 4 m/s 741 mmHg 47%
    11:00 +19°C° 0 mm 4 m/s 742 mmHg 44%
    12:00 +20°C° 0 mm 4 m/s 742 mmHg 40%
    13:00 +20°C° 0 mm 4 m/s 742 mmHg 40%
    14:00 +20°C° 0 mm 4 m/s 742 mmHg 39%
    15:00 +21°C° 0 mm 3 m/s 742 mmHg 38%
    16:00 +20°C° 0 mm 3 m/s 742 mmHg 43%
    17:00 +19°C° 0 mm 3 m/s 742 mmHg 47%
    18:00 +18°C° 0 mm 2 m/s 741 mmHg 52%
    19:00 +17°C° 0 mm 2 m/s 742 mmHg 55%
    20:00 +15°C° 0 mm 2 m/s 742 mmHg 59%
    21:00 +14°C° 0 mm 1 m/s 742 mmHg 63%
    22:00 +13°C° 0 mm 1 m/s 742 mmHg 65%
    23:00 +13°C° 0 mm 1 m/s 742 mmHg 66%

    24 August, Vineri

    Timp Temperatura Precipitaţii Vânt Presiune Umiditate
    00:00 +12°C° 0 mm 1 m/s 742 mmHg 68%
    01:00 +12°C° 0 mm 1 m/s 742 mmHg 69%
    02:00 +12°C° 0 mm 1 m/s 742 mmHg 70%
    03:00 +11°C° 0 mm 1 m/s 742 mmHg 71%
    04:00 +11°C° 0 mm 1 m/s 742 mmHg 71%
    05:00 +12°C° 0 mm 1 m/s 742 mmHg 70%
    06:00 +12°C° 0 mm 1 m/s 743 mmHg 70%
    07:00 +14°C° 0 mm 1 m/s 743 mmHg 63%
    08:00 +16°C° 0 mm 1 m/s 743 mmHg 56%
    09:00 +19°C° 0 mm 1 m/s 743 mmHg 49%
    10:00 +20°C° 0 mm 1 m/s 743 mmHg 45%
    11:00 +20°C° 0 mm 2 m/s 743 mmHg 40%
    12:00 +21°C° 0 mm 2 m/s 743 mmHg 36%
    13:00 +23°C° 0 mm 2 m/s 742 mmHg 35%
    14:00 +23°C° 0 mm 2 m/s 742 mmHg 35%
    15:00 +24°C° 0 mm 2 m/s 742 mmHg 34%
    16:00 +23°C° 0 mm 2 m/s 742 mmHg 38%
    17:00 +21°C° 0 mm 2 m/s 742 mmHg 42%
    18:00 +20°C° 0 mm 2 m/s 741 mmHg 47%
    19:00 +19°C° 0 mm 2 m/s 741 mmHg 50%
    20:00 +18°C° 0 mm 1 m/s 741 mmHg 53%
    21:00 +16°C° 0 mm 1 m/s 741 mmHg 56%
    22:00 +15°C° 0 mm 1 m/s 741 mmHg 58%
    23:00 +15°C° 0 mm 1 m/s 741 mmHg 60%

    25 August, Sâmbătă

    Timp Temperatura Precipitaţii Vânt Presiune Umiditate
    00:00 +14°C° 0 mm 1 m/s 741 mmHg 62%
    01:00 +14°C° 0 mm 1 m/s 741 mmHg 64%
    02:00 +13°C° 0 mm 1 m/s 741 mmHg 65%
    03:00 +13°C° 0 mm 1 m/s 741 mmHg 67%
    04:00 +13°C° 0 mm 1 m/s 741 mmHg 68%
    05:00 +13°C° 0 mm 1 m/s 741 mmHg 69%
    06:00 +13°C° 0 mm 1 m/s 741 mmHg 70%
    07:00 +16°C° 0 mm 1 m/s 742 mmHg 63%
    08:00 +19°C° 0 mm 1 m/s 742 mmHg 57%
    09:00 +21°C° 0 mm 1 m/s 742 mmHg 51%
    10:00 +22°C° 0 mm 1 m/s 742 mmHg 47%
    11:00 +23°C° 0 mm 1 m/s 741 mmHg 43%
    12:00 +25°C° 0 mm 1 m/s 741 mmHg 39%
    13:00 +25°C° 0 mm 1 m/s 741 mmHg 38%
    14:00 +25°C° 0 mm 1 m/s 741 mmHg 37%
    15:00 +26°C° 0 mm 2 m/s 740 mmHg 36%
    16:00 +25°C° 0 mm 2 m/s 740 mmHg 40%
    17:00 +24°C° 0 mm 2 m/s 740 mmHg 45%
    18:00 +24°C° 0 mm 2 m/s 740 mmHg 49%
    19:00 +21°C° 0 mm 2 m/s 740 mmHg 52%
    20:00 +20°C° 0 mm 2 m/s 739 mmHg 56%
    21:00 +18°C° 0 mm 2 m/s 739 mmHg 60%
    22:00 +17°C° 0 mm 2 m/s 739 mmHg 62%
    23:00 +18°C° 0 mm 1 m/s 739 mmHg 64%
    Arată mai mult